Погода в Дзарджане

Погода в Дзарджане : погода сейчас, прогноз погоды и архив. Всё, что Вы хотите узнать о погоде в Дзарджане!

Поиск расширенной информации на нашем сайте:

Другие новости

Новости СМИ2

Главная страница сайта

Новости сайта

02.10.2013

Напоминаем, что на нашем новом сайте вы можете получить высокодетализированные прогнозы погоды по пунктам России, СНГ и мира (включающие важные для авиации метеовеличины, такие как направление и скорость ветра, видимость, явления погоды, количество и форма облачности, нижняя и верхняя граница облачности), а также ознакомиться с разнообразными материалами по авиационной метеорологии и подборкой полезных ссылок на эту тему.

Сайт Метеоцентр.Азия посвящён разработке технологий оптимизации авиаметеорологического обслуживания, включая проектирование и перспективное создание нескольких автоматизированных авиаметеорологических систем:
- система выпуска высокодетальных прогностических карт явлений погоды для нижнего воздушного пространства по России и ближнему зарубежью;
- система верификации прогнозов TAF (выпускаемых синоптиками официальных АМСГ РФ и ближнего зарубежья) и AUTOTAF (выпускаемых сайтом Метеоцентр.Азия) - выявление ошибок, онлайн-сопоставление с фактической погодой METAR, автоматическое внесение коррективов в прогнозы при резком отклонении фактической погоды от прогноза, подсчёт оправдываемости прогнозов по элементам и в целом;
- система обработки, анализа и отображения авиаметеорологической информации для применения провайдерами метеорологической информации.


Погода в Дзарджане - сегодня

Время (UTC), дата Ветер
(°,м/с) 
Видим.   Явления Облачность Т
(°С)
Тd
(°С)
f(%) Тe
(°С)
Pmin
(гПа)
dP
(гПа)
Po
(мм)
O2
(г/м3)
Тmin Tmax R s Состояние
почвы
09 19.03.17 230 (ЮЗ) 4{17}  4000 м  слаб. снег  10/0 средняя 
[As op]
-6.2 -7.4 91 -10  1020.5  0.8  762  315           
03 20.03.17 230 (ЮЗ) 20000 м  слаб. снег  10/0 средняя 
[As op]
-3.7 -7 78 -7  1022.5  0.3  763  312           
06 20.03.17 180 (Ю) 20000 м  {снег}  9/4 1000 м средняя 
[Sc|Ac trans]
-2.3 -6.3 74 -4  1022.7  0.3  763  311           
09 20.03.17 180 (Ю) 20000 м    9/6 1000 м средняя 
[Sc|Ac trans]
-2 -6.6 71 -1  1023.6  0.9  764  311           
00 21.03.17 тихо ()   20000 м    ясно 
-10.5 -11.8 90 -11  1023.7  -0.2  764  321  -15.7      30  неравномерный
сухой снег
100% 
03 21.03.17 180 (Ю) 20000 м    8/0 верхняя 
[Cs]
-5 -8.6 76 -5  1022.7  -0.9  763  314           
06 21.03.17 250 (З) 20000 м    8/0 верхняя 
[Cs]
-3.3 -7.2 74 -3  1021.6  -1  762  312           
09 21.03.17 250 (З) 20000 м    9/4 1000 м средняя, верхняя 
[Sc|Ac trans|Ci fib]
-4 -9.8 64 -4  1021.2  -0.4  762  313           
00 22.03.17 270 (З) 20000 м    10/0 верхняя 
[Ci fib]
-14.4 -15 95 -17  1020.4  0.4  761  325  -14.8      29  неравномерный
сухой снег
100% 
03 22.03.17 270 (З) 20000 м    10/0 верхняя 
[Cs]
-9.8 -11.5 87 -12  1021  0.7  762  320           
06 22.03.17 270 (З) 20000 м    6/0 верхняя 
[Cc]
-7.1 -10.9 74 -7  1021.6  0.7  762  316           
09 22.03.17 тихо ()   20000 м    3/0 верхняя 
[Ci fib]
-4.9 -12.7 54 -5  1022.8  1.2  763  314           
15 22.03.17 тихо ()   20000 м    ясно 
-12.5 -13.2 94 -13  1024.6  0.7  765  324           
18 22.03.17 тихо ()   20000 м    ясно 
-13.6 -14.2 95 -14  1025.3  0.6  765  326           
21 22.03.17 тихо ()   20000 м    3/0 средняя 
[Ac trans]
-17.9 -19.8 85 -18  1024.6  -0.8  764  331           
00 23.03.17 тихо ()   20000 м    8/0 верхняя 
[Ci fib]
-16.1 -18 85 -16  1024.1  -0.4  764  329  -18.1      28  неравномерный
сухой снег
100% 
03 23.03.17 тихо ()   20000 м    10/0 верхняя 
[Ci fib]
-12 -14.7 80 -12  1022.8  -1.2  763  323           
06 23.03.17 тихо ()   20000 м    10/0 верхняя 
[Ci fib]
-7.1 -11.9 69 -7  1020.4  -2.3  762  316           
09 23.03.17 тихо ()   20000 м    10/0 верхняя 
[Ci fib]
-5.1 -10.5 66 -5  1019.1  -1.3  761  313           
12 23.03.17 тихо ()   20000 м    10/0 верхняя 
[Ci fib]
-8.3 -12 75 -8  1018.5  -0.7  760  317    -4.8       
15 23.03.17 тихо ()   20000 м    10/0 верхняя 
[Ci fib]
-9.4 -12.4 79 -9  1018.1  -0.4  760  318           
18 23.03.17 180 (Ю) 20000 м    10/0 верхняя 
[Ci fib]
-9.8 -12.4 81 -12  1016.8  -1.3  759  318           
21 23.03.17 180 (Ю) 20000 м    10/0 верхняя 
[Ci fib]
-10.3 -12.3 85 -12  1016.1  -0.7  758  319           
00 24.03.17 180 (Ю) 20000 м  слаб. снег  10/0 средняя 
[As op]
-9.5 -12.5 79 -11  1016.5  0.4  759  318  -10.3    0.0  28  неравномерный
сухой снег
100% 
03 24.03.17 230 (ЮЗ) 10 км  слаб. снег  10/0 средняя 
[As op]
-7.7 -10.3 82 -11  1016.1  -0.3  758  315           
Время (UTC), дата Ветер
(°,м/с) 
Видим.   Явления Облачность Т
(°С)
Тd
(°С)
f(%) Тe
(°С)
Pmin
(гПа)
dP
(гПа)
Po
(мм)
O2
(г/м3)
Тmin Tmax R s Состояние
почвы

Для получения пояснительной информации подведите курсор к названию столбца.

ПОГОДА в Дзарджане - архив

Всё, что Вы хотите узнать о погоде в Дзарджане - удобно и подробно!

Выберите нужную дату (начиная с 1 января 2015* года) и нажмите кнопку "Найти".
Будут отображены архивные сводки погоды по пункту Дзарджан, начиная с указанной даты.


Отображать данные в формате CSV (для использования в таблицах Excel)


Внимание! Наш архив погоды предназначен исключительно для личного некоммерческого использования в познавательных целях. Если Вам необходимы официальные справки о состоянии погоды (для производственных, юридических, коммерческих и т.п. целей), обращайтесь в органы Росгидромета.

*Примечание: данная дата относится к архиву по метеостанциям СССР (Россия, СНГ, Балтия).
Архив по метеостанциям Зарубежной Европы и Азии (кроме Китая) хранится 10 дней, по другим регионам земного шара (Китай, Африка, Америка, Австралия, Океания) - 1 день.

Дзарджан - район местоположения метеостанции


Название, широта, долгота, высота метеостанции:
Дзарджан 68.7°ш. 124°д. 39 м над ур. моря [Российская Федерация]

Дополнительная информация

В oтличие oт бoльшинства пoгoдных сайтoв мы публикуем пoдрoбную метеoинфoрмацию в детальнoм прoфессиoнальнoм фoрмате.

Характеристики температуры и влажнoсти вoздуха измеряются на высoте 2 м в тени вдали oт зданий и деревьев.
Скoрoсть ветра измеряется на высoте 10 м (на урoвне рoста челoвека скoрoсть ветра ниже в 1.5-2 раза). Если метеoстанция нахoдится в гoрoде или в лесу, тo скoрoсть ветра занижена на 2-4 м/с пo сравнению с oткрытым местoм. Скoрoсть ветра над акватoриями крупных рек и oзёр, а также на вершинах хoлмoв на 2-5 м/с выше, чем в oбычных услoвиях.
Атмoсфернoе давление в разных тoчках местнoсти мoжет значительнo oтличаться oт давления на метеoстанции, в зависимoсти oт услoвий рельефа (при пoдъёме на 10 м давление пoнижается примернo на 1 мм рт.ст.).